Disclaimer

Please do not use the information listed here in-flight or in-navigation, as they are not provided to us by the airports but are provided by volunteers, so they might be outdated.

Search


Regions


Airport information page

No radio frequency information is available.

Airport informations:
Latitude: 51° 45' 02.21" N
Longitude: 036° 17' 44.11" E
Elevation: 686 feet - 209 meters
Operating hours: Remarks
Operating agency: Civil government, landing fees and diplomatic clearance may be required
Timezone: UTC+3(+4DT) - Last Sunday in March to last Sunday in October
Fuel: N/A

Runway information:
12/30 - 8202 x 131 feet< - >2500 x 40 meters

Recent METARs:
UUOK 170830Z 21005MPS 9999 FEW033 M05/M08 Q1012 R12/CLRD57 NOSIG RMK QFE741/0988
UUOK 170900Z 22006MPS 9999 FEW033 M04/M08 Q1011 R12/CLRD57 NOSIG RMK QFE741/0988
UUOK 170930Z 22006MPS CAVOK M04/M08 Q1011 R12/CLRD57 NOSIG RMK QFE740/0987

Airport on the map: